{"data":{"norad_id":58412,"epoch":"2026-09-20T22:00:03.000096Z","epoch_age_seconds":110710,"freshness":"FRESH","line1":"1 58412U 23180L   26263.91670139  .00145817  15624-4  53925-3 0  9994","line2":"2 58412  42.9799 201.0659 0028139 179.7387  34.5220 15.86898198  5903","mean_motion":15.86898198,"eccentricity":0.0028139,"inclination_deg":42.9799,"raan_deg":201.0659,"arg_perigee_deg":179.7387,"mean_anomaly_deg":34.522,"bstar":0.00053925,"rev_number":590,"period_min":90.743061011403,"perigee_km":292.16268034533,"apogee_km":329.80772226985,"semimajor_km":6689.1222013076,"source":"CELESTRAK","updated_at":"2026-09-21T09:00:33.871785Z"}}